Location: Lake Lucerne
(41.4051°N, 81.3382°W)
Time: 13:47:59
(UTC+00:00)

Daily predictions for brighter satellites

Satellite Brightness Start Highest point End
(mag) Time Altitude Azimuth Time Altitude Azimuth Time Altitude Azimuth
Cosmos 1743 2.3 12:02:01 10° S 12:05:14 88° ESE 12:08:30 10° N
USA 267 4.0 12:00:44 10° NE 12:07:11 59° SE 12:13:36 10° SSW
IRIDIUM 103 4.5 12:04:16 10° SSW 12:09:21 55° W 12:14:30 10° N
Cosmos 2219 Rocket 3.0 12:04:25 10° NNW 12:09:58 53° ENE 12:15:27 10° SE
Cosmos 1814 Rocket 4.1 12:05:50 10° SSW 12:10:57 58° WNW 12:16:10 10° NNE
IRS-1C 4.3 12:05:53 10° NNE 12:11:14 86° ESE 12:16:33 10° SSW
Cosmos 2322 Rocket 2.2 12:06:20 10° NNW 12:12:03 79° WSW 12:17:42 10° SSE
CBERS-1 4.4 12:07:20 10° N 12:12:03 39° WNW 12:16:45 10° SW
MOS 1 Rocket 4.3 22:22:39 10° ESE 22:26:36 26° ENE 22:30:44 10° NNE
Cosmos 405 Rocket 2.5 22:24:46 10° N 22:27:56 47° ENE 22:31:02 10° SSE
Cosmos 2279 Rocket 4.0 22:26:33 10° S 22:32:41 71° E 22:38:54 10° NNE
YAOGAN 1 4.3 22:32:30 10° E 22:33:50 11° ENE 22:35:12 10° NE
Cosmos 1356 Rocket 4.2 22:30:44 10° SSW 22:34:39 52° WNW 22:38:38 10° N
Cosmos 1092 Rocket 4.5 22:32:30 10° NNW 22:38:36 67° W 22:44:39 10° S
SJ-12 4.3 22:35:54 10° SE 22:39:20 35° ENE 22:42:48 10° N
Cosmos 1570 Rocket 4.0 22:35:23 10° NNW 22:40:43 69° ENE 22:46:00 10° SSE
Cosmos 1980 Rocket 4.0 22:39:44 10° ESE 22:41:29 11° E 22:43:08 10° ENE
Cosmos 1933 4.5 22:38:32 10° SE 22:41:30 22° E 22:44:28 10° NE
Cosmos 2180 Rocket 4.5 22:40:06 10° S 22:46:06 63° E 22:52:10 10° NNE
Cosmos 836 Rocket 4.4 22:43:09 10° NNW 22:48:24 72° ENE 22:53:38 10° SSE
Cosmos 1486 Rocket 4.0 22:43:59 10° S 22:49:09 73° ESE 22:54:23 10° NNE
Cosmos 2228 4.1 22:46:06 10° SSW 22:50:09 45° WNW 22:54:14 10° N
CZ-4C R/B 3.4 22:44:58 10° NNW 22:51:27 38° NE 22:59:18 10° ESE
IRIDIUM 106 4.4 22:52:14 10° N 22:57:23 57° E 23:02:30 10° SSE
Cosmos 1825 Rocket 4.4 22:54:11 10° NNE 22:57:52 26° ENE 23:01:29 10° SE
Cosmos 2263 Rocket 3.7 22:54:45 10° NNE 22:58:00 15° NE 22:58:58 15° ENE
Cosmos 2098 Rocket 2.9 22:54:35 10° S 22:58:17 87° W 23:02:45 10° N
Cosmos 1758 Rocket 3.5 22:54:58 10° N 22:59:17 88° W 23:03:33 10° S
USA 290 2.8 22:57:06 10° N 23:00:07 34° ENE 23:03:07 10° SE
Cosmos 2360 4.2 22:54:32 10° SSW 23:00:15 88° ESE 23:06:01 10° NNE
CORIOLIS 4.3 22:55:32 10° S 23:00:51 78° WSW 23:06:13 10° NNW
CZ-2D R/B 2.6 23:01:09 10° SSE 23:04:15 77° ENE 23:07:24 10° N
Helios 1A Rocket 4.3 23:05:52 14° ESE 23:05:52 14° ESE 23:07:10 10° SE
Cosmos 773 Rocket 3.9 23:00:15 10° NNW 23:05:29 81° ENE 23:10:44 10° SSE
ARIANE 5 R/B 2.5 23:02:05 10° SSE 23:07:07 87° ENE 23:12:14 10° NNW
Cosmos 2227 Rocket 3.0 23:03:08 10° N 23:07:59 28° NE 23:12:44 10° ESE
AQUARIUS 4.0 23:06:08 10° SSE 23:10:31 73° ENE 23:14:55 10° N
SPOT 1/Viking Rocket 3.8 23:06:07 10° SE 23:11:00 44° ENE 23:15:56 10° N
Cosmos 2266 Rocket 3.9 23:06:36 10° N 23:12:45 69° E 23:18:46 10° SSE
Cosmos 1607 4.0 23:07:17 10° NNW 23:13:26 56° NE 23:19:36 10° SE
Cosmos 2208 Rocket 4.0 23:09:45 10° NNW 23:14:56 83° WSW 23:20:07 10° SSE
CENTAUR R/B 4.2 23:10:37 10° W 23:15:20 24° NNW 23:20:57 10° NNE
SL-16 R/B 4.1 23:10:09 10° N 23:15:38 34° WNW 23:21:05 10° SW
Cosmos 990 Rocket 4.2 23:11:36 10° S 23:16:28 47° ESE 23:20:05 17° NE
USA 238 DEB 4.3 23:13:14 10° S 23:18:18 29° ESE 23:20:47 22° ENE
USA 238 4.3 23:13:22 10° S 23:18:25 29° ESE 23:20:51 22° ENE
ATLAS CENTAUR R/B 0.5 23:15:48 10° NNW 23:19:00 66° NE 23:21:23 16° SE
Cosmos 1743 2.8 23:17:00 10° NNW 23:20:13 60° W 23:23:25 10° S
BlueWalker 3 1.6 23:18:35 10° NW 23:22:13 72° NE 23:24:06 26° ESE
NOSS 2-3 (C) 4.1 23:19:39 10° S 23:22:38 25° ESE 23:22:41 25° ESE
Cosmos 1697 Rocket 2.7 23:17:22 10° S 23:22:52 63° ESE 23:27:10 17° NNE
SMAP 4.3 23:21:41 10° S 23:26:06 43° W 23:30:33 10° NNW
SAR-Lupe-3 4.2 23:26:08 26° N 23:27:17 58° WNW 23:29:46 10° SSW
Cosmos 1606 Rocket 3.4 23:23:58 10° S 23:28:20 76° E 23:32:45 10° N
Cosmos 2151 3.2 23:24:30 10° NNW 23:28:39 70° W 23:32:46 10° S
USA 215 4.4 23:26:29 19° NE 23:29:11 25° NNE 23:34:18 10° NW
Cosmos 1461 2.8 23:26:10 10° SW 23:30:01 72° WNW 23:32:06 26° NNE
Gbstr 26 Del rocket 2.6 23:26:21 10° SW 23:30:26 74° SE 23:31:38 41° ENE
Meteor 1-20 Rocket 4.2 23:28:05 10° NNW 23:33:34 79° W 23:39:00 10° S
Resurs 1-3 3.7 23:31:55 10° SSE 23:36:02 47° ENE 23:40:11 10° N
Cosmos 1076 Rocket 3.8 23:32:58 10° N 23:37:05 43° ENE 23:41:11 10° SSE
Okean 1-7 Rocket 3.7 23:37:15 10° NNW 23:41:39 73° W 23:45:58 10° S
Cosmos 783 Rocket 4.4 23:36:44 10° NNW 23:42:03 78° ENE 23:47:20 10° SSE
PSLV R/B 4.5 23:48:07 10° SSE 23:53:51 31° N 23:56:05 10° N
Cosmos 1726 Rocket 3.8 23:50:10 10° SSW 23:54:47 77° W 23:58:20 17° N
SKYMED 2 4.1 23:51:59 13° N 23:55:44 58° WNW 00:00:00 10° SSW
